Simultaneous Nadir Overpasses (SNOs) Predictions

Prediction of SNOs between GOES-16 and METOP-B Satellite Orbit:

Table of predicted SNOs for the next 14.0 days since TLE Epoch: 1/13/2017
Index Date Time (GOES-16) GOES-16 Lat,Lon METOP-B Lat,Lon Distance(km) Time Diff (sec)
1 01/13/2017 15:24:43 0.01, -89.49 -0.33, -87.97 172.91 80
2 01/15/2017 03:41:02 -0.01, -89.46 -0.68, -92.56 352.99 80
3 01/16/2017 03:23:02 -0.02, -89.46 0.40, -87.56 216.91 80
4 01/17/2017 15:39:13 0.02, -89.50 0.60, -92.12 298.62 80
5 01/18/2017 15:21:12 0.02, -89.50 -0.49, -87.12 271.61 80
6 01/20/2017 03:37:32 -0.02, -89.49 -0.52, -91.71 253.38 80
7 01/21/2017 03:19:32 -0.02, -89.49 0.62, -86.72 316.99 80
8 01/22/2017 15:35:44 0.02, -89.54 0.38, -91.28 198.15 80
9 01/23/2017 15:17:43 0.03, -89.54 -0.71, -86.28 372.39 80
10 01/25/2017 03:34:02 -0.02, -89.53 -0.29, -90.87 152.12 80
11 01/26/2017 03:16:02 -0.03, -89.54 0.79, -85.87 418.53 80




NCC Satellite Simultaneous Nadir Overpasses (SNOs) Prediction Service
